CAPE
0 0 2 108 466 636 729 857 924 910 794 958 863 886 938 916 952 956 936 859 764 731 691 647 528 512 446 358 359 327 332 334 319
0 0 0 0 188 508 688 823 983 1026 989 1008 991 1005 1015 1027 1022 1052 984 919 828 787 738 694 636 560 590 549 531 433 422 393 352
0 0 0 0 35 334 748 875 990 1052 1078 1063 1042 1069 1109 1162 1110 1082 1045 983 927 896 873 827 805 769 615 564 550 451 447 414 363
0 0 0 0 0 214 634 920 1019 1070 1116 1161 1145 1077 1116 1248 1204 1146 1123 1077 1006 1002 944 893 866 813 664 597 540 473 434 430 421
0 0 0 70 367 581 672 887 1023 1069 1178 1257 1290 1281 1228 1234 1192 1139 1215 1126 1033 989 1052 897 951 849 728 661 582 529 445 478 492
2 3 19 408 665 710 729 830 988 1131 1267 1347 1368 1397 1399 1351 1262 1172 1266 1238 1183 1088 1076 1053 1041 1029 938 746 666 504 487 641 498
788 815 647 446 620 768 826 947 982 1035 1239 1378 1463 1513 1545 1505 1445 1363 1244 1194 1226 1192 1115 1184 1136 1212 1116 871 724 672 653 575 443
1261 1382 1408 1437 1444 1526 1128 843 1073 1182 1181 1299 1380 1426 1557 1594 1587 1551 1470 1381 1292 1149 1168 1142 856 517 391 911 818 728 720 673 550
1134 1371 1582 1773 1863 1985 2054 1975 1688 933 1211 1323 1487 1511 1594 1640 1634 1627 1582 1525 1453 1411 1277 733 820 18 121 764 740 593 643 735 610
417 479 819 1218 1267 1407 1919 2245 2142 1585 1047 1094 1491 1645 1731 1795 1811 1798 1761 1706 1606 1549 1261 663 9 712 726 782 630 401 248 416 646
0 0 5 104 243 244 731 1482 2156 2157 1417 1288 1546 1731 1812 1868 1891 1856 1852 1857 1801 1689 1312 1121 534 825 970 817 663 96 16 246 336
0 0 0 0 0 24 79 297 674 1249 1765 2281 1985 1782 1679 1597 1748 1870 1891 1876 1863 1754 1318 522 61 565 794 795 681 246 133 68 182
0 0 0 0 0 0 0 13 18 58 164 326 1177 2508 2434 2274 1991 1879 1877 1801 1736 1598 1233 361 0 6 531 541 440 153 69 37 122
0 0 0 0 0 0 0 0 3 0 0 4 0 668 2517 2534 2324 2143 1989 1852 1641 1453 1450 1099 389 449 538 483 287 269 48 22 133
0 0 0 0 0 0 0 0 0 0 0 0 0 0 819 2187 2471 2313 2048 1833 1579 1311 1098 921 645 628 736 556 471 253 27 15 104
0 0 0 0 0 0 0 0 0 0 0 0 0 0 0 317 2026 2126 1671 1487 1275 1021 839 730 577 678 731 662 431 270 122 1 3
0 0 0 0 0 0 0 0 0 0 0 0 0 0 0 14 603 1440 1150 1091 910 856 755 538 264 250 407 416 476 396 180 99 2
0 0 0 0 0 0 0 0 0 0 0 0 0 0 0 0 138 372 559 502 434 394 425 226 10 92 103 70 142 343 338 173 60
0 0 0 0 0 0 0 0 0 0 0 0 0 0 0 0 36 35 2 43 93 0 7 45 1 3 13 48 30 269 341 177 90
0 0 0 0 0 0 0 0 0 0 0 0 0 0 0 0 0 5 56 0 0 0 1 0 0 0 0 0 0 45 198 193 68
CIN
0 0 -48 -256 -265 -304 -329 -373 -306 -302 -309 -281 -305 -272 -249 -241 -207 -187 -167 -149 -139 -125 -104 -76 -49 -42 -39 -38 -34 -39 -42 -46 -54
0 0 0 0 -302 -316 -353 -385 -335 -295 -266 -267 -289 -258 -249 -236 -217 -197 -195 -183 -162 -144 -131 -113 -90 -69 -41 -39 -34 -41 -40 -47 -50
0 0 0 0 -274 -325 -397 -389 -370 -344 -314 -243 -265 -277 -260 -236 -210 -204 -200 -205 -185 -170 -139 -126 -110 -91 -91 -85 -73 -76 -68 -67 -55
0 0 0 0 0 -320 -390 -389 -386 -358 -344 -300 -285 -303 -296 -253 -230 -221 -204 -200 -197 -179 -155 -143 -123 -102 -113 -115 -109 -106 -93 -80 -56
0 0 0 -201 -204 -270 -326 -331 -355 -352 -375 -328 -298 -314 -306 -279 -275 -278 -229 -205 -203 -199 -163 -157 -131 -116 -112 -113 -118 -120 -112 -75 -64
-48 -77 -64 -174 -196 -182 -245 -295 -306 -321 -348 -334 -355 -355 -319 -293 -289 -281 -239 -226 -205 -200 -172 -139 -124 -106 -101 -111 -115 -131 -121 -78 -86
-254 -286 -286 -246 -233 -290 -324 -323 -346 -355 -344 -371 -363 -357 -317 -297 -289 -281 -271 -249 -222 -204 -181 -143 -115 -86 -78 -99 -95 -103 -103 -98 -100
-217 -265 -297 -313 -260 -310 -354 -354 -357 -358 -356 -378 -366 -349 -333 -281 -302 -301 -271 -246 -258 -231 -192 -142 -129 -104 -46 -75 -84 -95 -85 -79 -84
-235 -301 -333 -343 -343 -333 -315 -356 -352 -387 -315 -358 -357 -319 -269 -313 -313 -306 -275 -243 -227 -206 -176 -157 -42 -150 -205 -112 -91 -101 -73 -50 -55
-405 -455 -433 -403 -441 -451 -416 -347 -357 -349 -364 -426 -355 -310 -267 -252 -257 -253 -237 -230 -208 -195 -189 -134 -116 -97 -130 -107 -93 -73 -40 -60 -50
0 0 -328 -676 -653 -666 -599 -455 -342 -356 -397 -407 -355 -297 -244 -222 -206 -194 -197 -200 -182 -167 -192 -123 -140 -125 -101 -102 -101 -108 -140 -57 -57
0 0 0 0 0 -843 -791 -643 -569 -451 -360 -308 -312 -299 -290 -283 -248 -201 -181 -164 -143 -141 -158 -125 -11 -69 -119 -113 -98 -156 -129 -99 -51
0 0 0 0 0 0 0 -823 -796 -651 -574 -525 -367 -214 -203 -201 -207 -201 -183 -147 -132 -141 -126 -247 0 -92 -109 -140 -114 -129 -151 -153 -61
0 0 0 0 0 0 0 -275 -548 0 0 -166 0 -426 -169 -152 -159 -149 -149 -141 -144 -122 -83 -89 -175 -145 -119 -141 -129 -79 -130 -197 -131
0 0 0 0 0 0 0 0 0 0 0 0 0 0 -345 -151 -116 -122 -138 -130 -152 -174 -176 -148 -156 -118 -95 -114 -122 -154 -207 -229 -135
0 0 0 0 0 0 0 0 0 0 0 0 0 0 0 -463 -127 -124 -203 -192 -215 -240 -230 -237 -243 -144 -126 -135 -162 -230 -280 -39 -48
0 0 0 0 0 0 0 0 0 0 0 0 0 0 0 -386 -327 -127 -204 -224 -267 -254 -251 -295 -334 -227 -180 -186 -211 -205 -203 -331 -57
0 0 0 0 0 0 0 0 0 0 0 0 0 0 0 0 -514 -345 -251 -297 -342 -339 -326 -371 -563 -369 -343 -367 -281 -231 -136 -172 -301
0 0 0 0 0 0 0 0 0 0 0 0 0 0 0 0 -532 -558 -68 -366 -457 0 -177 -561 -218 -155 -562 -428 -299 -178 -217 -192 -211
0 0 0 0 0 0 0 0 0 0 0 0 0 0 0 0 0 -74 -391 0 0 0 -19 0 0 0 0 0 0 -197 -179 -171 -210
Wind_Speed
21 20 17 12 10 10 10 11 14 16 17 16 16 18 19 17 15 14 13 11 11 10 9 8 8 9 9 8 3 0 2 12 20
21 20 17 13 10 8 8 8 12 15 14 12 14 16 15 16 15 13 12 12 11 11 10 9 7 7 7 8 7 3 0 4 13
23 24 22 18 11 9 9 8 8 9 11 12 12 13 12 12 12 12 10 9 11 11 10 8 6 6 6 6 6 6 3 2 9
24 26 23 17 15 11 10 9 9 10 10 11 11 12 11 10 9 9 10 11 10 11 9 8 5 5 4 5 5 5 5 6 2
25 23 19 15 15 13 15 13 13 12 10 11 11 8 9 12 9 6 9 12 11 11 12 10 5 3 2 2 3 4 4 7 4
22 21 16 14 14 15 16 16 15 12 10 9 6 5 6 8 11 9 10 10 10 11 10 10 7 4 4 3 3 3 3 2 3
19 19 15 13 14 15 15 13 11 10 8 6 5 4 4 5 8 9 8 10 9 8 6 7 5 4 6 5 6 4 4 5 6
17 18 15 13 14 17 20 20 13 8 5 4 4 3 1 4 4 4 6 6 8 9 7 5 6 17 37 14 8 7 5 7 8
15 14 13 14 18 18 20 23 25 15 3 4 3 0 1 6 6 4 6 8 10 7 7 11 12 8 8 11 12 9 8 6 9
14 15 15 16 19 22 24 27 30 30 23 10 5 3 4 9 8 6 7 9 9 9 10 13 19 12 6 6 6 15 9 7 12
16 16 16 17 20 22 26 29 30 29 28 19 14 11 7 9 9 7 9 11 10 11 12 10 6 7 5 2 5 16 8 10 13
17 17 17 20 22 24 28 30 31 30 29 28 26 24 20 15 10 9 12 14 15 19 18 28 28 29 3 3 4 9 2 5 11
17 17 19 22 25 28 29 31 30 30 31 31 32 31 30 26 19 12 12 15 22 22 18 21 29 29 9 10 18 9 6 4 10
17 19 21 24 27 28 29 31 31 32 33 34 36 35 33 30 27 24 19 18 19 20 18 18 16 13 10 16 19 17 11 4 6
21 21 23 25 27 29 31 33 34 34 35 36 37 36 35 33 30 27 23 21 19 20 19 17 17 16 16 17 13 11 9 4 4
26 23 26 27 29 32 34 36 36 37 39 39 38 37 37 36 31 26 22 20 19 17 15 13 15 20 20 16 14 12 8 6 4
25 29 31 33 36 38 40 39 39 39 40 40 39 38 37 36 31 24 20 18 16 13 8 7 9 14 7 7 13 13 14 10 8
32 34 35 38 39 40 41 41 40 40 40 40 39 38 36 33 29 24 21 19 16 13 10 10 12 7 9 9 10 7 11 11 9
35 36 39 40 40 42 42 42 41 41 40 39 38 37 34 32 28 23 22 22 20 18 18 15 13 13 13 15 19 10 11 17 12
35 36 38 40 40 40 40 40 41 40 39 39 39 38 37 34 32 28 24 22 21 22 22 20 16 16 19 20 21 9 13 33 20
Wind_Direction
334 343 14 60 110 124 133 140 155 159 161 160 157 165 173 170 170 168 169 163 158 159 155 151 150 162 165 162 138 53 313 303 287
335 334 6 34 62 109 117 122 146 158 156 151 156 164 166 173 174 171 169 168 167 169 163 157 146 146 158 163 159 152 265 312 299
334 324 311 337 49 74 110 110 121 139 155 162 156 161 161 163 173 178 175 169 176 178 176 166 152 149 146 153 160 162 173 288 307
325 313 302 321 354 45 91 84 101 123 141 154 160 165 165 165 171 179 182 186 187 189 189 187 182 167 152 146 149 149 162 167 296
312 311 306 357 15 32 75 87 101 117 124 151 165 163 169 179 178 173 183 192 192 193 196 192 201 204 198 186 164 165 171 179 192
302 312 334 335 353 37 69 93 105 106 119 140 138 149 165 178 187 188 190 196 195 195 195 196 196 207 223 249 234 209 202 229 252
326 334 345 334 320 309 355 54 111 122 114 98 84 119 157 181 190 194 196 199 199 204 208 212 213 228 216 211 205 230 262 279 290
333 337 336 319 323 334 340 325 14 37 61 80 81 85 108 208 212 219 214 224 217 224 232 248 312 342 260 207 205 212 257 287 285
326 318 320 326 340 334 328 330 336 18 40 21 39 118 290 335 321 285 249 240 231 273 283 311 318 196 182 200 205 208 209 273 285
333 329 333 331 336 340 333 336 337 339 353 15 22 14 348 335 324 302 285 284 267 281 299 331 338 223 218 217 303 312 267 249 284
351 340 333 332 334 332 341 347 349 352 358 17 24 21 13 354 338 320 316 310 289 293 299 306 244 230 223 276 318 328 279 222 286
356 340 337 349 348 343 345 348 353 358 356 356 358 356 357 354 344 326 326 321 318 317 319 317 319 303 276 318 315 331 288 241 287
357 344 344 343 347 351 348 349 355 356 350 343 339 336 339 344 346 341 329 326 325 324 326 334 357 248 223 342 332 346 344 307 294
347 346 342 343 346 349 349 348 350 347 342 335 331 329 329 333 337 339 340 335 332 329 331 332 336 336 347 345 334 330 334 331 305
322 337 340 341 342 344 342 344 342 340 337 335 331 329 327 325 329 335 340 340 339 337 336 339 341 340 343 342 347 339 334 314 286
300 326 333 334 339 335 331 333 335 330 327 328 327 327 325 326 327 332 337 341 343 343 347 350 349 333 325 331 337 331 323 308 242
335 329 327 327 326 324 319 324 325 324 321 321 320 320 323 325 330 335 335 335 337 337 336 350 5 357 326 306 327 319 306 300 290
323 322 320 322 319 319 318 319 318 320 320 320 319 320 321 324 328 331 330 327 326 323 313 308 315 294 245 263 303 298 291 286 278
320 322 321 322 319 316 316 316 315 314 314 317 319 320 322 324 325 324 323 322 319 315 312 304 292 305 305 311 311 301 278 278 272
321 323 323 322 319 318 318 318 317 317 316 315 314 316 316 318 320 320 316 314 315 313 310 305 280 281 305 307 312 268 278 265 275